Location: Unspecified
(0.0000°N, 0.0000°E)
Time: 01:04:58
(UTC+00:00)

Traac - Pass Details

Date: 16 December 2025
Orbit: 951 x 1102 km, 32.4° (Epoch: 19 January)

Event Time Altitude Azimuth Distance (km) Brightness Sun altitude
Rises 18:12:39 0° 246° (WSW) 3,667 14.4 -3.9°
Reaches altitude 10° 18:15:25 10° 251° (WSW) 2,701 12.3 -4.5°
Maximum altitude 18:21:40 51° 325° (NW) 1,184 8.6 -5.9°
Drops below altitude 10° 18:27:50 10° 40° (NE) 2,657 9.7 -7.3°
Enters shadow 18:28:52 - 43° (NE) 3,014 10.0 -7.6°
